FW7539 Weather Reports


Display with metric or nautical units.
time (UTC)temp
F
wind
direction
speed
MPH
gust
MPH
rain 1hr
in
rain 24hr
in
rain mn
in
humidity
%
barometer
mb
20260905130500 69 306 1.0 2.0 0.00 0.88 0.28 85 1015.3
20260905130001 69 307 1.0 2.0 0.00 0.88 0.28 85 1015.4
20260905125500 69 341 1.0 2.0 0.00 0.88 0.28 85 1015.4
20260905125001 69 15 0.0 2.0 0.00 0.88 0.28 85 1015.2
20260905124500 69 15 0.0 1.0 0.00 0.88 0.28 85 1015.0
20260905124001 69 14 0.0 1.0 0.00 0.88 0.28 85 1015.0
20260905123501 69 7 1.0 2.0 0.00 0.88 0.28 85 1014.8
20260905123001 68 3 0.0 2.0 0.00 0.88 0.28 85 1014.8
20260905122500 68 360 0.0 1.0 0.00 0.88 0.28 85 1014.9
20260905122000 68 360 0.0 1.0 0.00 0.88 0.28 85 1014.9
20260905121500 68 360 0.0 3.0 0.00 0.88 0.28 85 1014.8
20260905121001 68 360 0.0 3.0 0.00 0.88 0.28 85 1014.9
20260905120501 68 360 0.0 1.0 0.00 0.88 0.28 85 1014.9
20260905120000 68 360 0.0 1.0 0.00 0.88 0.28 85 1015.0
20260905115501 68 360 0.0 2.0 0.01 0.88 0.28 85 1015.1
20260905115001 68 6 0.0 3.0 0.01 0.88 0.28 85 1015.2
20260905114501 68 24 1.0 3.0 0.04 0.88 0.28 85 1015.2
20260905114022 68 20 1.0 4.0 0.08 0.88 0.28 85 1015.2
20260905113501 68 12 1.0 4.0 0.14 0.88 0.28 85 1015.1
20260905113001 68 36 1.0 3.0 0.21 0.88 0.28 85 1014.9
20260905112501 68 36 1.0 4.0 0.28 0.88 0.28 85 1015.0
20260905112000 68 39 1.0 4.0 0.28 0.88 0.28 85 1014.8
20260905111500 68 41 1.0 4.0 0.28 0.88 0.28 85 1015.0
20260905111000 68 45 2.0 7.0 0.28 0.88 0.28 85 1015.0
20260905110500 68 49 2.0 7.0 0.28 0.88 0.28 85 1015.0
20260905110000 68 41 2.0 6.0 0.28 0.88 0.28 85 1015.0
20260905105500 69 39 2.0 7.0 0.27 0.87 0.27 84 1015.1
20260905105001 69 32 3.0 9.0 0.27 0.87 0.27 84 1015.2
20260905104501 69 30 4.0 18.0 0.22 0.82 0.22 83 1015.3
20260905104001 70 17 5.0 20.0 0.18 0.78 0.18 83 1015.2
20260905103501 70 12 6.0 20.0 0.13 0.73 0.14 82 1015.4
20260905103001 71 16 9.0 24.0 0.05 0.65 0.05 80 1015.5
20260905102501 72 13 8.0 24.0 0.00 0.60 0.00 78 1015.1
20260905102000 72 13 7.0 21.0 0.00 0.60 0.00 80 1015.3
20260905101500 72 18 7.0 21.0 0.00 0.60 0.00 83 1015.0
20260905101000 72 12 6.0 20.0 0.00 0.60 0.00 85 1014.6
20260905100500 73 360 2.0 15.0 0.00 0.60 0.00 86 1014.6
20260905100021 73 5 0.0 1.0 0.00 0.60 0.00 86 1013.3
20260905095500 73 0 0.0 0.0 0.00 0.60 0.00 85 1013.1
20260905095000 72 0 0.0 0.0 0.00 0.60 0.00 85 1013.1
20260905094522 72 0 0.0 0.0 0.00 0.60 0.00 85 1013.0
20260905094022 72 0 0.0 0.0 0.00 0.60 0.00 85 1012.9
20260905093501 72 0 0.0 0.0 0.00 0.60 0.00 85 1012.9
20260905093001 72 0 0.0 0.0 0.00 0.60 0.00 85 1012.8
20260905092501 72 0 0.0 0.0 0.00 0.60 0.00 85 1012.9
20260905092001 72 0 0.0 0.0 0.00 0.60 0.00 85 1012.9
20260905091522 72 0 0.0 0.0 0.00 0.60 0.00 85 1012.9
20260905091000 72 5 0.0 1.0 0.00 0.60 0.00 85 1012.8
20260905090500 72 5 0.0 1.0 0.00 0.60 0.00 85 1012.8
20260905090000 72 0 0.0 0.0 0.00 0.60 0.00 85 1012.9
20260905085500 72 0 0.0 0.0 0.00 0.60 0.00 85 1012.9
20260905085022 72 0 0.0 0.0 0.00 0.60 0.00 85 1012.9
20260905084501 72 0 0.0 0.0 0.00 0.60 0.00 85 1012.9
20260905084000 72 5 0.0 1.0 0.00 0.60 0.00 85 1012.9
20260905083501 72 5 0.0 1.0 0.00 0.60 0.00 85 1013.0
20260905083000 72 5 0.0 1.0 0.00 0.60 0.00 85 1013.0
20260905082501 72 0 0.0 0.0 0.00 0.60 0.00 85 1013.0
20260905082001 72 0 0.0 0.0 0.00 0.60 0.00 85 1013.0
20260905081500 72 0 0.0 0.0 0.00 0.60 0.00 85 1012.9
20260905081021 72 0 0.0 0.0 0.00 0.60 0.00 85 1012.9
20260905080500 72 0 0.0 0.0 0.00 0.60 0.00 85 1012.8
20260905080000 73 0 0.0 0.0 0.00 0.60 0.00 85 1012.5
20260905075501 73 0 0.0 0.0 0.00 0.60 0.00 85 1012.5
20260905075001 73 0 0.0 0.0 0.00 0.60 0.00 85 1012.3
20260905074500 73 0 0.0 0.0 0.00 0.60 0.00 85 1012.3
20260905074000 73 0 0.0 0.0 0.00 0.60 0.00 85 1012.3
20260905073500 73 0 0.0 0.0 0.00 0.60 0.00 85 1012.1
20260905073001 73 0 0.0 0.0 0.00 0.60 0.00 85 1012.0
20260905072522 73 0 0.0 0.0 0.00 0.60 0.00 85 1012.1
20260905072001 73 5 0.0 1.0 0.00 0.60 0.00 85 1012.2
20260905071501 73 5 0.0 1.0 0.00 0.60 0.00 85 1012.2
20260905071022 73 5 0.0 1.0 0.00 0.60 0.00 85 1012.1
20260905070501 73 0 0.0 0.0 0.00 0.60 0.00 85 1012.1
20260905070001 73 0 0.0 0.0 0.00 0.60 0.00 85 1012.2
20260905065522 73 0 0.0 0.0 0.00 0.60 0.00 85 1012.4
20260905065001 73 5 0.0 1.0 0.00 0.60 0.00 85 1012.4
20260905064501 73 5 0.0 1.0 0.00 0.60 0.00 85 1012.5
20260905064001 73 0 0.0 0.0 0.00 0.60 0.00 85 1012.6
20260905063500 74 0 0.0 0.0 0.00 0.60 0.00 85 1012.8
20260905063000 74 0 0.0 0.0 0.00 0.60 0.00 85 1012.8
20260905062500 74 0 0.0 0.0 0.00 0.60 0.00 85 1012.9
20260905062000 74 0 0.0 0.0 0.00 0.60 0.00 85 1013.0
20260905061500 74 0 0.0 0.0 0.00 0.60 0.00 85 1013.0
20260905061000 74 0 0.0 0.0 0.00 0.60 0.00 85 1013.1
20260905060500 74 0 0.0 0.0 0.00 0.60 0.00 85 1012.9
20260905060000 74 0 0.0 0.0 0.00 0.60 0.00 85 1013.0
20260905055500 74 0 0.0 0.0 0.00 0.60 0.00 85 1013.1
20260905055021 74 0 0.0 0.0 0.00 0.60 0.00 85 1013.1
20260905054500 74 0 0.0 0.0 0.00 0.60 0.00 85 1013.2
20260905054000 74 0 0.0 0.0 0.00 0.60 0.00 85 1013.2
20260905053521 74 0 0.0 0.0 0.00 0.60 0.00 85 1013.3
20260905053001 74 0 0.0 0.0 0.00 0.60 0.00 85 1013.4
20260905052521 74 0 0.0 0.0 0.00 0.60 0.00 85 1013.4
20260905052001 74 0 0.0 0.0 0.00 0.60 0.00 85 1013.5
20260905051501 74 0 0.0 0.0 0.00 0.60 0.00 85 1013.6
20260905051001 74 0 0.0 0.0 0.00 0.60 0.00 85 1013.6
20260905050501 74 0 0.0 0.0 0.00 0.60 0.00 85 1013.6
20260905050001 74 0 0.0 0.0 0.00 0.60 0.00 85 1013.7
20260905045522 74 0 0.0 0.0 0.00 0.60 0.00 85 1013.7
20260905045001 74 0 0.0 0.0 0.00 0.60 0.00 85 1013.8
20260905044502 74 0 0.0 0.0 0.00 0.60 0.00 85 1013.8
20260905044001 74 0 0.0 0.0 0.00 0.60 0.00 85 1013.7
20260905043500 74 0 0.0 0.0 0.00 0.60 0.00 85 1013.7
20260905043021 75 0 0.0 0.0 0.00 0.60 0.00 85 1013.7
20260905042501 75 0 0.0 0.0 0.00 0.60 0.00 85 1013.7
20260905042001 75 0 0.0 0.0 0.00 0.60 0.00 85 1013.7
20260905041501 75 0 0.0 0.0 0.00 0.60 0.00 85 1013.7
20260905041001 75 0 0.0 0.0 0.00 0.60 0.00 85 1013.8
20260905040501 75 5 0.0 1.0 0.00 0.60 0.00 85 1013.9
20260905040022 75 5 0.0 1.0 0.00 0.60 0.00 85 1013.8
20260905035501 75 5 0.0 1.0 0.00 0.60 0.60 85 1013.8
20260905035001 75 0 0.0 0.0 0.00 0.60 0.60 85 1013.9
20260905034501 75 0 0.0 0.0 0.00 0.60 0.60 85 1013.9
20260905034022 75 0 0.0 0.0 0.00 0.60 0.60 85 1013.8
20260905033522 75 0 0.0 0.0 0.00 0.60 0.60 85 1013.8
20260905033001 75 0 0.0 0.0 0.00 0.60 0.60 85 1013.8
20260905032522 75 0 0.0 0.0 0.00 0.60 0.60 85 1013.8
20260905032001 75 5 0.0 1.0 0.00 0.60 0.60 85 1013.8
20260905031501 75 5 0.0 1.0 0.00 0.60 0.60 85 1013.8
20260905031001 75 5 0.0 1.0 0.00 0.60 0.60 85 1013.8
20260905030501 75 0 0.0 0.0 0.00 0.60 0.60 85 1013.8
20260905030001 75 0 0.0 0.0 0.00 0.60 0.60 85 1013.7
20260905025501 75 0 0.0 0.0 0.00 0.60 0.60 85 1013.7
20260905025000 75 5 0.0 1.0 0.00 0.60 0.60 85 1013.6
20260905024501 75 5 0.0 1.0 0.00 0.60 0.60 85 1013.7
20260905024022 75 5 0.0 1.0 0.00 0.60 0.60 85 1013.6
20260905023500 75 5 0.0 1.0 0.00 0.60 0.60 85 1013.6
20260905023001 75 0 0.0 0.0 0.00 0.60 0.60 85 1013.7
20260905022501 75 5 0.0 1.0 0.00 0.60 0.60 85 1013.7
20260905022001 75 5 0.0 1.0 0.00 0.60 0.60 85 1013.7
20260905021501 75 0 0.0 0.0 0.00 0.60 0.60 85 1013.7
20260905021001 75 0 0.0 0.0 0.00 0.60 0.60 85 1013.7
20260905020501 75 0 0.0 0.0 0.00 0.60 0.60 85 1013.6
20260905020001 75 0 0.0 0.0 0.00 0.60 0.60 85 1013.6
20260905015501 75 0 0.0 0.0 0.00 0.60 0.60 85 1013.5
20260905015001 75 0 0.0 0.0 0.00 0.60 0.60 85 1013.4
20260905014522 75 0 0.0 0.0 0.00 0.60 0.60 85 1013.3
20260905014022 75 0 0.0 0.0 0.00 0.60 0.60 85 1013.3
20260905013501 75 0 0.0 0.0 0.00 0.60 0.60 85 1013.2
20260905013001 75 0 0.0 0.0 0.00 0.60 0.60 85 1013.3
20260905012501 75 0 0.0 0.0 0.00 0.60 0.60 85 1013.3
20260905012001 75 0 0.0 0.0 0.00 0.60 0.60 85 1013.2
20260905011501 75 0 0.0 0.0 0.00 0.60 0.60 85 1013.2
20260905011001 75 5 0.0 1.0 0.00 0.60 0.60 85 1013.0
20260905010522 75 5 0.0 1.0 0.00 0.60 0.60 85 1013.1
20260905010001 75 0 0.0 0.0 0.00 0.60 0.60 85 1013.1
20260905005501 75 0 0.0 0.0 0.00 0.60 0.60 85 1013.1
20260905005001 75 5 0.0 1.0 0.00 0.60 0.60 85 1013.1
20260905004501 75 5 0.0 1.0 0.00 0.60 0.60 85 1013.0
20260905004000 75 0 0.0 0.0 0.00 0.60 0.60 85 1013.0
20260905003500 76 5 0.0 1.0 0.00 0.60 0.60 85 1013.0
20260905003000 76 5 1.0 1.0 0.00 0.60 0.60 85 1013.0
20260905002501 76 5 1.0 1.0 0.00 0.60 0.60 84 1013.0
20260905002001 76 5 1.0 2.0 0.00 0.60 0.60 84 1013.0
20260905001501 76 5 0.0 2.0 0.00 0.60 0.60 84 1013.1
20260905001001 77 5 0.0 2.0 0.00 0.60 0.60 84 1013.2
20260905000501 77 5 0.0 2.0 0.00 0.60 0.60 83 1013.2
20260905000001 77 5 0.0 2.0 0.00 0.60 0.60 83 1013.1
20260904235502 77 5 0.0 2.0 0.00 0.60 0.60 83 1013.1
20260904235001 77 5 0.0 2.0 0.00 0.60 0.60 83 1013.0
20260904234501 77 0 0.0 0.0 0.00 0.60 0.60 82 1013.0
20260904234001 78 5 0.0 1.0 0.00 0.60 0.60 82 1013.0
20260904233522 78 5 0.0 1.0 0.00 0.60 0.60 82 1012.9
20260904233022 78 5 0.0 1.0 0.00 0.60 0.60 81 1013.0
20260904232501 78 5 0.0 1.0 0.00 0.60 0.60 81 1012.9
20260904232022 79 5 0.0 1.0 0.00 0.60 0.60 82 1013.0
20260904231501 79 8 0.0 3.0 0.00 0.60 0.60 81 1013.0
20260904231001 79 20 1.0 4.0 0.00 0.60 0.60 80 1012.8
20260904230501 79 14 2.0 8.0 0.00 0.60 0.60 80 1013.1
20260904230001 79 7 1.0 8.0 0.00 0.60 0.60 81 1013.0
20260904225501 79 17 0.0 2.0 0.00 0.60 0.60 80 1012.9
20260904225001 78 17 0.0 2.0 0.00 0.60 0.60 82 1012.9
20260904224522 78 17 0.0 1.0 0.01 0.60 0.60 83 1012.8
20260904224001 78 17 0.0 1.0 0.01 0.60 0.60 83 1012.8
20260904223501 77 0 0.0 0.0 0.02 0.60 0.60 82 1012.8
20260904223001 77 0 0.0 0.0 0.22 0.60 0.60 81 1012.7
20260904222501 77 0 0.0 0.0 0.48 0.60 0.60 81 1012.8
20260904222001 77 26 0.0 3.0 0.60 0.60 0.60 82 1012.7
20260904221501 77 71 0.0 4.0 0.60 0.60 0.60 82 1012.9
20260904221001 76 138 0.0 4.0 0.60 0.60 0.60 83 1012.8
20260904220501 76 140 1.0 5.0 0.60 0.60 0.60 84 1013.0
20260904220001 75 137 2.0 8.0 0.60 0.60 0.60 84 1013.3
20260904215501 75 151 2.0 8.0 0.60 0.60 0.60 83 1013.6
20260904215001 75 221 2.0 4.0 0.60 0.60 0.60 84 1014.1
20260904214501 74 188 2.0 7.0 0.59 0.59 0.59 84 1014.6
20260904214000 74 181 2.0 7.0 0.59 0.59 0.59 82 1014.9
20260904213501 76 246 3.0 25.0 0.58 0.58 0.58 79 1015.4
20260904213022 77 296 5.0 25.0 0.35 0.35 0.36 75 1016.4
20260904212501 81 316 5.0 17.0 0.12 0.12 0.12 71 1017.3
20260904212001 83 349 5.0 14.0 0.00 0.00 0.00 58 1015.9
20260904211522 83 10 6.0 18.0 0.00 0.00 0.00 53 1015.7
20260904211001 84 22 6.0 18.0 0.00 0.00 0.00 51 1014.8
20260904210501 85 29 5.0 12.0 0.00 0.00 0.00 49 1014.0
20260904210001 86 16 5.0 16.0 0.00 0.00 0.00 49 1014.0
20260904205522 88 15 7.0 17.0 0.00 0.00 0.00 47 1014.0
20260904205001 92 19 6.0 17.0 0.00 0.00 0.00 42 1014.1
20260904204522 97 7 3.0 13.0 0.00 0.00 0.00 42 1013.8
20260904204001 98 275 2.0 5.0 0.00 0.00 0.00 43 1013.5
20260904203501 98 262 2.0 5.0 0.00 0.00 0.00 42 1013.4
20260904203001 98 335 2.0 5.0 0.00 0.00 0.00 44 1013.3
20260904202501 98 310 2.0 8.0 0.00 0.00 0.00 43 1013.3
20260904202022 98 285 2.0 8.0 0.00 0.00 0.00 42 1013.4
20260904201522 98 250 3.0 7.0 0.00 0.00 0.00 43 1013.5
20260904201001 98 249 2.0 6.0 0.00 0.00 0.00 43 1013.6
20260904200501 97 300 1.0 4.0 0.00 0.00 0.00 45 1013.5
20260904200001 97 253 2.0 8.0 0.00 0.00 0.00 45 1013.4
20260904195501 97 242 3.0 8.0 0.00 0.00 0.00 44 1013.6
20260904195001 97 268 2.0 5.0 0.00 0.00 0.00 46 1013.6
20260904194501 97 356 3.0 7.0 0.00 0.00 0.00 45 1013.6
20260904194001 96 339 3.0 7.0 0.00 0.00 0.00 47 1013.7
20260904193501 96 287 2.0 8.0 0.00 0.00 0.00 47 1013.7
20260904193001 96 277 2.0 8.0 0.00 0.00 0.00 47 1013.6
20260904192501 95 248 3.0 11.0 0.00 0.00 0.00 48 1013.6
20260904192001 95 245 3.0 11.0 0.00 0.00 0.00 48 1013.6
20260904191501 95 259 2.0 12.0 0.00 0.00 0.00 47 1013.7
20260904191001 95 260 2.0 12.0 0.00 0.00 0.00 48 1013.8
20260904190501 95 239 2.0 7.0 0.00 0.00 0.00 49 1013.8
20260904190001 95 244 2.0 8.0 0.00 0.00 0.00 48 1014.0
20260904185502 95 270 2.0 8.0 0.00 0.00 0.00 48 1014.1
20260904185001 95 304 3.0 7.0 0.00 0.00 0.00 49 1014.1
20260904184502 95 263 3.0 7.0 0.00 0.00 0.00 47 1014.2
20260904184001 95 241 2.0 7.0 0.00 0.00 0.00 47 1014.3
20260904183501 95 237 2.0 7.0 0.00 0.00 0.00 49 1014.3
20260904183001 95 255 2.0 7.0 0.00 0.00 0.00 47 1014.4
20260904182502 94 238 2.0 10.0 0.00 0.00 0.00 47 1014.4
20260904182001 94 239 2.0 10.0 0.00 0.00 0.00 47 1014.5
20260904181502 95 263 2.0 9.0 0.00 0.00 0.00 48 1014.6
20260904181022 94 244 3.0 9.0 0.00 0.00 0.00 49 1014.8
20260904180501 94 275 2.0 8.0 0.00 0.00 0.00 49 1014.7
20260904180023 95 306 2.0 8.0 0.00 0.00 0.00 47 1014.9
20260904175522 95 267 2.0 7.0 0.00 0.00 0.00 48 1015.0
20260904175001 95 275 2.0 9.0 0.00 0.00 0.00 49 1015.1
20260904174522 95 290 3.0 9.0 0.00 0.00 0.00 49 1015.1
20260904174001 95 256 2.0 7.0 0.00 0.00 0.00 50 1015.2
20260904173501 95 252 3.0 9.0 0.00 0.00 0.00 48 1015.2
20260904173001 95 256 3.0 9.0 0.00 0.00 0.00 48 1015.4
20260904172501 95 266 2.0 8.0 0.00 0.00 0.00 47 1015.3
20260904172001 95 267 2.0 5.0 0.00 0.00 0.00 49 1015.5
20260904171501 94 253 2.0 6.0 0.00 0.00 0.00 49 1015.5
20260904171001 94 246 3.0 7.0 0.00 0.00 0.00 49 1015.5
20260904170523 94 259 2.0 7.0 0.00 0.00 0.00 50 1015.6
20260904170001 94 240 3.0 13.0 0.00 0.00 0.00 52 1015.6
20260904165501 94 232 3.0 13.0 0.00 0.00 0.00 48 1015.6
20260904165001 94 243 2.0 9.0 0.00 0.00 0.00 49 1015.6
20260904164522 94 320 3.0 9.0 0.00 0.00 0.00 49 1015.6
20260904164001 94 325 3.0 8.0 0.00 0.00 0.00 49 1015.5
20260904163502 94 267 2.0 8.0 0.00 0.00 0.00 50 1015.7
20260904163002 94 301 2.0 9.0 0.00 0.00 0.00 51 1015.7
20260904162501 94 333 2.0 9.0 0.00 0.00 0.00 50 1015.6
20260904162001 93 307 2.0 7.0 0.00 0.00 0.00 52 1015.5
20260904161501 93 260 2.0 7.0 0.00 0.00 0.00 53 1015.7
20260904161002 93 256 2.0 8.0 0.00 0.00 0.00 52 1015.7
20260904160502 93 246 2.0 8.0 0.00 0.00 0.00 53 1015.7
20260904160002 92 265 2.0 5.0 0.00 0.00 0.00 55 1015.7
20260904155502 92 278 2.0 6.0 0.00 0.00 0.00 55 1015.8
20260904155002 92 247 3.0 7.0 0.00 0.00 0.00 55 1015.7
20260904154502 92 263 2.0 7.0 0.00 0.00 0.00 54 1015.6
20260904154023 92 297 2.0 6.0 0.00 0.00 0.00 56 1015.7
20260904153501 91 329 2.0 8.0 0.00 0.00 0.00 56 1015.7
20260904153001 91 341 2.0 8.0 0.00 0.00 0.00 56 1015.7
20260904152522 91 306 2.0 6.0 0.00 0.00 0.00 57 1015.7
20260904152022 91 348 2.0 6.0 0.00 0.00 0.00 57 1015.7
20260904151501 90 349 2.0 7.0 0.00 0.00 0.00 57 1015.6
20260904151001 90 247 2.0 5.0 0.00 0.00 0.00 58 1015.7
20260904150501 90 241 2.0 5.0 0.00 0.00 0.00 59 1015.6
20260904150022 89 277 2.0 5.0 0.00 0.00 0.00 62 1015.6
20260904145501 89 250 2.0 5.0 0.00 0.00 0.00 60 1015.6
20260904145001 88 240 1.0 4.0 0.00 0.00 0.00 61 1015.5
20260904144522 88 262 2.0 4.0 0.00 0.00 0.00 63 1015.6
20260904144001 88 260 2.0 4.0 0.00 0.00 0.00 61 1015.6
20260904143501 88 267 2.0 6.0 0.00 0.00 0.00 61 1015.5
20260904143022 87 255 1.0 6.0 0.00 0.00 0.00 63 1015.5
20260904142501 87 232 1.0 5.0 0.00 0.00 0.00 62 1015.5
20260904142022 87 235 1.0 5.0 0.00 0.00 0.00 63 1015.5
20260904141501 87 255 1.0 5.0 0.00 0.00 0.00 63 1015.5
20260904141001 86 262 2.0 5.0 0.00 0.00 0.00 64 1015.6
20260904140501 86 242 1.0 4.0 0.00 0.00 0.00 65 1015.5
20260904140022 85 235 1.0 4.0 0.00 0.00 0.00 66 1015.4
20260904135502 85 258 1.0 3.0 0.00 0.00 0.00 68 1015.4
20260904135002 84 250 1.0 3.0 0.00 0.00 0.00 69 1015.4
20260904134502 84 271 1.0 3.0 0.00 0.00 0.00 69 1015.5
20260904134002 83 302 1.0 3.0 0.00 0.00 0.00 70 1015.6
20260904133523 83 271 1.0 2.0 0.00 0.00 0.00 71 1015.6
20260904133002 83 251 1.0 2.0 0.00 0.00 0.00 71 1015.7
20260904132501 82 227 0.0 2.0 0.00 0.00 0.00 72 1015.6
20260904132001 82 234 1.0 3.0 0.00 0.00 0.00 73 1015.7
20260904131501 81 222 1.0 3.0 0.00 0.00 0.00 73 1015.6
20260904131001 81 209 1.0 3.0 0.00 0.00 0.00 74 1015.6